Location: Cabeza de los Veneras
(40.2000°N, 5.2000°W)
Time: 03:27:50
(UTC+00:00)

Celestis-02/Orion 38 - Pass Details

Date: 18 April 2024
Orbit: 773 x 864 km, 108.0° (Epoch: 25 May)

Event Time Altitude Azimuth Distance (km) Brightness Sun altitude
Exits shadow 21:30:07 72° 178° (S) 815 4.4 -25.3°
Maximum altitude 21:30:38 82° 243° (WSW) 785 4.4 -25.3°
Drops below altitude 10° 21:35:43 10° 333° (NNW) 2,332 7.9 -26.0°
Sets 21:38:01 0° 334° (NNW) 3,269 8.9 -26.4°
